Погода в Крутихе

Россия / Алтайский край     53°57′54″N   81°12′30″E
темп.,
°C
ветер,
м/с
пор.,
м/с
влажн.,
%
обл.,
%
осадки,
мм/ч
давл.,
гПа
погр.,
м
14 мая, пт
пт1401:00+8ссз37935 0.0 1016193
04:00+7ссз37936 0.0 1017173
07:00+10с397998 0.0 1018366
10:00+14с56485 0.0 1020929
13:00+16с5541100 0.0 10211553
16:00+17с564063 0.0 10221682
19:00+17ссз453636 0.0 10231489
22:00+11ссз235381 0.0 102542
15 мая, сб
сб1501:00+10сз114789 0.0 102511
04:00+9з22525 0.0 102514
07:00+10юз24580 0.0 102591
10:00+17з4635100 0.0 1025723
13:00+20зюз452894 0.0 10221104
16:00+23зюз46285 0.0 10201428
19:00+23з473627 0.0 10191482
22:00+16ююз39575 0.1 1018163
16 мая, вс
вс1601:00+14ююз3107015 1.5 1017192
04:00+13ююз388251 0.3 1016142
07:00+14юз39815 0.3 1015248
10:00+22з47505 0.0 1014560
13:00+27з69355 0.0 10131711
16:00+28з683186 0.0 10123266
19:00+26сз5941100 0.0 10121421
22:00+19с37655 0.0 1013147
17 мая, пн
пн1701:00+16ссв117695 0.0 101411
04:00+15зюз237711 0.0 101448
07:00+17зюз3116954 0.0 1013261
10:00+23з6124671 0.3 1013926
13:00+28зсз610327 0.3 10122157
16:00+29сз610285 0.0 10123332
19:00+27ссз47370 0.0 10121871
22:00+20св22590 0.0 101317
18 мая, вт
вт1801:00+17вюв237929 0.4 101355
04:00+15св379052 1.0 1013210
07:00+15юв249027 1.4 1010155
10:00+22з12595 0.0 1008398
13:00+26ссз354199 0.0 10071824
16:00+24с464841 0.3 10061432
19:00+18ссв686696 0.3 1007733
22:00+11св510775 0.0 1011589